Regional Weather Roundup
Issued by NWS

Home | Current Version | Previous Version | Text Only | Print | Product List | Glossary Off
Versions: 1 2 3 4 5 6 7 8 9 10 11 12 13 14 15 16 17 18 19 20 21 22 23 24 25 26 27 28 29 30 31 32 33 34 35 36 37 38 39 40 41 42 43 44 45 46 47 48 49 50

000
ASUS43 KFSD 311902
RWRSD

WEATHER ROUNDUP FOR SOUTH DAKOTA
NATIONAL WEATHER SERVICE SIOUX FALLS SD
200 PM CDT FRI OCT 31 2014

NOTE: "FAIR" INDICATES FEW OR NO CLOUDS BELOW 12,000 FEET WITH NO
SIGNIFICANT WEATHER AND/OR OBSTRUCTIONS TO VISIBILITY.


SDZ001>005-009-010-012>017-312000-
NORTHWEST AND NORTH CENTRAL SOUTH DAKOTA

CITY           SKY/WX    TMP DP  RH WIND       PRES   REMARKS
BUFFALO          N/A     44  29  55 SE30G41   30.04F
FAITH            N/A     39  18  42 SE29G37   30.25F
MOBRIDGE       SUNNY     39  15  37 S21       30.38F
$$

SDZ012>016-024>037-041>051-057-063-072>074-312000-
SOUTHWEST AND SOUTH CENTRAL SOUTH DAKOTA

CITY           SKY/WX    TMP DP  RH WIND       PRES   REMARKS
RAPID CTY ARPT SUNNY     43  31  62 S22G32    30.21F
PIERRE         MOSUNNY   37  14  38 SE17      30.41F
CUSTER         MOSUNNY   41  28  60 S10G20    30.19F
ELLSWORTH AFB  SUNNY     44  31  61 S26G33    30.19F
PHILIP         MOSUNNY   45  23  42 SE18G24   30.33F
PINE RIDGE     SUNNY     49  28  44 S12G24    30.26F
SPEARFISH      FAIR      54  37  54 NW7       30.05F
WINNER         FAIR      42  14  32 SE15      30.44F
$$

SDZ004>011-016>023-039-040-312000-
NORTHEAST SOUTH DAKOTA

CITY           SKY/WX    TMP DP  RH WIND       PRES   REMARKS
ABERDEEN       SUNNY     38  16  40 S12       30.50F
WATERTOWN      SUNNY     36  18  48 S6        30.49F
SISSETON         N/A     35  22  58 VRB6      30.52F
$$

SDZ017-020-022-023-036>040-048>070-312000-
SOUTHEAST SOUTH DAKOTA

CITY           SKY/WX    TMP DP  RH WIND       PRES   REMARKS
SIOUX FALLS    MOSUNNY   38  20  48 E5        30.52F
HURON          SUNNY     37  17  44 S8        30.51F
CHAMBERLAIN    MOSUNNY   37  13  37 S10G16    30.48F
MITCHELL       SUNNY     37  18  46 SE8       30.54F
YANKTON        SUNNY     37  16  41 E5        30.54F
$$

ABBREVIATIONS USED IN REMARKS
   TC - TEMPERATURE IN CELSIUS
  WCI - WIND CHILL INDEX
   HX - HEAT INDEX
  VSB - VISIBILITY




USA.gov is the U.S. government's official web portal to all federal, state and local government web resources and services.